Flight Track Log - Related Links

Times and Time Zones

All times are in EDT time to prevent confusion due to time zone crossing. See the N93974 flight status page for this flight to view local times or setup timezone preferences in your user account.

Time Position Orientation Groundspeed Altitude Reporting Facility
EDT Latitude Longitude Course Direction KTS MPH feet Rate Location/Type
Tue 02:20:32 PM 41.2669 -92.3892 270° West 120 138 8,000  Level Chicago Center
Tue 02:21:34 PM 41.2714 -92.4356 277° West 123 142 8,000  Level Chicago Center
Tue 02:22:36 PM 41.2750 -92.4906 275° West 132 152 8,000 97 Level Chicago Center
Tue 02:23:38 PM 41.2772 -92.5467 273° West 144 166 8,200 242 Climbing Chicago Center
Tue 02:24:40 PM 41.2753 -92.5989 267° West 146 168 8,500 180 Climbing Chicago Center
Tue 02:25:00 PM 41.2733 -92.0257 270° West  Level Estimated
Tue 02:25:51 PM 41.2772 -92.6694 272° West 139 160 8,600  Level Minneapolis Center
Tue 02:26:53 PM 41.2739 -92.7250 265° West 149 171 8,500 -48 Descending Minneapolis Center
Tue 02:27:55 PM 41.2714 -92.7883 267° West 159 183 8,500 -48 Level Minneapolis Center
Tue 02:28:57 PM 41.2711 -92.8436 270° West 153 176 8,400  Descending Minneapolis Center
Tue 02:29:53 PM 41.2761 -92.8850 279° West 149 171 8,500 103 Climbing Minneapolis Center
Tue 02:30:54 PM 41.2750 -92.9403 268° West 149 171 8,600 246 Climbing Minneapolis Center
Tue 02:31:55 PM 41.2761 -92.9931 272° West 136 157 9,000 298 Climbing Minneapolis Center
Tue 02:32:55 PM 41.2767 -93.0400 271° West 129 148 9,200 189 Climbing Minneapolis Center
Tue 02:33:30 PM 41.2675 -93.0756 251° West 131 151 9,300 247 Climbing Minneapolis Center
Tue 02:34:32 PM 41.2664 -93.1286 268° West 134 154 9,600 290 Climbing Minneapolis Center
Tue 02:35:34 PM 41.2658 -93.1742 269° West 126 145 9,900 242 Climbing Minneapolis Center
Tue 02:36:36 PM 41.2642 -93.2247 268° West 128 147 10,100 242 Climbing Minneapolis Center
Tue 02:37:38 PM 41.2636 -93.2706 269° West 125 144 10,400 97 Climbing Minneapolis Center
Tue 02:38:40 PM 41.2589 -93.3203 263° West 134 154 10,300 48 Descending Minneapolis Center
Tue 02:39:42 PM 41.2608 -93.3803 272° West 149 171 10,500 48 Climbing Minneapolis Center
Tue 02:40:44 PM 41.2592 -93.4358 268° West 150 173 10,400  Descending Minneapolis Center
Tue 02:41:46 PM 41.2583 -93.4961 269° West 151 174 10,500  Climbing Minneapolis Center
Tue 02:42:48 PM 41.2586 -93.5503 270° West 149 171 10,400  Descending Minneapolis Center
Tue 02:43:51 PM 41.2564 -93.6097 267° West 149 171 10,500 48 Climbing Minneapolis Center
Tue 02:44:53 PM 41.2539 -93.6656 267° West 151 174 10,500  Level Minneapolis Center
Tue 02:45:55 PM 41.2553 -93.7258 272° West 152 175 10,500  Level Minneapolis Center
Tue 02:47:09 PM 41.2539 -93.7828 268° West 154 177 10,500  Level Minneapolis Center
Tue 02:48:11 PM 41.2506 -93.8514 266° West 152 175 10,500  Level Minneapolis Center
Tue 02:49:13 PM 41.2503 -93.9081 270° West 153 176 10,500  Level Minneapolis Center
Tue 02:50:15 PM 41.2494 -93.9675 269° West 151 174 10,500  Level Minneapolis Center
Tue 02:51:17 PM 41.2458 -94.0228 265° West 150 173 10,500  Level Minneapolis Center
Tue 02:52:19 PM 41.2442 -94.0800 268° West 146 168 10,500  Level Minneapolis Center
Tue 02:53:21 PM 41.2436 -94.1344 269° West 148 170 10,500 44 Level Minneapolis Center
Tue 02:54:35 PM 41.2408 -94.1936 266° West 149 171 10,600  Climbing Minneapolis Center
Tue 02:55:38 PM 41.2400 -94.2606 269° West 149 171 10,500 -48 Descending Minneapolis Center
Tue 02:56:39 PM 41.2356 -94.3144 264° West 148 170 10,500  Level Minneapolis Center
Tue 02:57:41 PM 41.2356 -94.3736 270° West 147 169 10,500 48 Level Minneapolis Center
Tue 02:58:43 PM 41.2356 -94.4250 270° West 144 166 10,600 48 Climbing Minneapolis Center
Tue 02:59:45 PM 41.2325 -94.4706 265° West 146 168 10,600  Level Minneapolis Center
Tue 03:00:47 PM 41.2306 -94.5372 268° West 146 168 10,600  Level Minneapolis Center
Tue 03:01:49 PM 41.2311 -94.5794 271° West 146 168 10,600  Level Minneapolis Center
Tue 03:02:51 PM 41.2286 -94.6428 267° West 145 167 10,600  Level Minneapolis Center
Tue 03:03:53 PM 41.2269 -94.6947 268° West 142 163 10,600  Level Minneapolis Center
Tue 03:04:55 PM 41.2289 -94.7503 273° West 147 169 10,600 -49 Level Minneapolis Center
Tue 03:05:56 PM 41.2289 -94.8011 270° West 142 163 10,500 -49 Descending Minneapolis Center
Tue 03:06:58 PM 41.2261 -94.8667 267° West 147 169 10,500  Level Minneapolis Center
Tue 03:07:39 PM 41.2364 -94.9086 288° West 146 168 10,500  Level Minneapolis Center
Tue 03:08:00 PM 41.2231 -94.9208 215° Southwest 147 169 10,500  Level Minneapolis Center
Tue 03:08:27 PM 41.2308 -94.9481 291° West 145 167 10,500  Level Minneapolis Center
Tue 03:09:02 PM 41.2197 -94.9733 240° Southwest 145 167 10,500  Level Minneapolis Center
Tue 03:09:28 PM 41.2308 -95.0036 296° West 147 169 10,500  Level Minneapolis Center
Tue 03:10:04 PM 41.2214 -95.0289 244° Southwest 147 169 10,500  Level Minneapolis Center
Tue 03:10:29 PM 41.2283 -95.0567 288° West 148 170 10,500  Level Minneapolis Center
Tue 03:11:05 PM 41.2169 -95.0822 239° Southwest 147 169 10,500  Level Minneapolis Center
Tue 03:11:30 PM 41.2242 -95.1153 286° West 146 168 10,500  Level Minneapolis Center
Tue 03:12:07 PM 41.2147 -95.1353 238° Southwest 145 167 10,500  Level Minneapolis Center
Tue 03:12:30 PM 41.2219 -95.1683 286° West 143 165 10,500  Level Minneapolis Center
Tue 03:13:09 PM 41.2125 -95.1878 237° Southwest 144 166 10,500  Level Minneapolis Center
Tue 03:13:32 PM 41.2192 -95.2186 286° West 143 165 10,500  Level Minneapolis Center
Tue 03:14:23 PM 41.2103 -95.2508 250° West 143 165 10,500  Level Minneapolis Center
Tue 03:15:32 PM 41.2144 -95.3275 274° West 145 167 10,500  Level Minneapolis Center
Tue 03:16:27 PM 41.2069 -95.3692 257° West 145 167 10,500  Level Minneapolis Center
Tue 03:17:34 PM 41.2094 -95.4361 273° West 145 167 10,500  Level Minneapolis Center
Tue 03:18:35 PM 41.2069 -95.4892 266° West 144 166 10,500  Level Minneapolis Center
Tue 03:18:54 PM 41.2014 -95.4867 161° South 145 167 10,500  Level Minneapolis Center
Tue 03:19:35 PM 41.2044 -95.5419 274° West 142 163 10,500  Level Minneapolis Center
Tue 03:19:56 PM 41.2006 -95.5500 237° Southwest 144 166 10,500  Level Minneapolis Center
Tue 03:20:36 PM 41.1994 -95.5925 268° West 141 162 10,500  Level Minneapolis Center
Tue 03:20:58 PM 41.1967 -95.6017 248° West 142 163 10,500  Level Minneapolis Center
Tue 03:21:37 PM 41.1989 -95.6453 274° West 144 166 10,500  Level Minneapolis Center
Tue 03:22:00 PM 41.1956 -95.6650 257° West 142 163 10,500  Level Minneapolis Center
Tue 03:22:38 PM 41.1983 -95.6981 276° West 143 165 10,500  Level Minneapolis Center
Tue 03:23:02 PM 41.1939 -95.7167 252° West 142 163 10,500  Level Minneapolis Center
Tue 03:23:39 PM 41.1939 -95.7567 270° West 144 166 10,500  Level Minneapolis Center
Tue 03:24:03 PM 41.1914 -95.7711 257° West 143 165 10,500  Level Minneapolis Center
Tue 03:24:39 PM 41.1911 -95.8097 269° West 146 168 10,500  Level Minneapolis Center
Tue 03:25:05 PM 41.1894 -95.8250 262° West 145 167 10,500  Level Minneapolis Center
Tue 03:25:40 PM 41.1883 -95.8625 268° West 144 166 10,500  Level Minneapolis Center
Tue 03:26:07 PM 41.1864 -95.8783 261° West 145 167 10,500  Level Minneapolis Center
Tue 03:26:41 PM 41.1833 -95.9131 263° West 145 167 10,500  Level Minneapolis Center
Tue 03:27:09 PM 41.1836 -95.9325 271° West 145 167 10,500  Level Minneapolis Center
Tue 03:27:41 PM 41.1831 -95.9714 269° West 148 170 10,500  Level Minneapolis Center
Tue 03:28:11 PM 41.1836 -95.9875 273° West 146 168 10,500  Level Minneapolis Center
Tue 03:28:42 PM 41.1806 -96.0269 264° West 148 170 10,500  Level Minneapolis Center
Tue 03:29:12 PM 41.1808 -96.0414 271° West 146 168 10,500  Level Minneapolis Center
Tue 03:29:43 PM 41.1756 -96.0800 260° West 147 169 10,500  Level Minneapolis Center
Tue 03:30:14 PM 41.1772 -96.0958 278° West 147 169 10,500  Level Minneapolis Center
Tue 03:30:44 PM 41.1750 -96.1356 266° West 148 170 10,500  Level Minneapolis Center
Tue 03:31:16 PM 41.1761 -96.1614 273° West 147 169 10,500  Level Minneapolis Center
Tue 03:31:45 PM 41.1700 -96.1886 253° West 145 167 10,500  Level Minneapolis Center
Tue 03:32:18 PM 41.1714 -96.2147 274° West 145 167 10,500  Level Minneapolis Center
Tue 03:32:45 PM 41.1650 -96.2447 254° West 145 167 10,500  Level Minneapolis Center
Tue 03:33:20 PM 41.1697 -96.2686 285° West 145 167 10,500  Level Minneapolis Center
Tue 03:33:52 PM 41.1644 -96.3028 258° West 148 170 10,500  Level Minneapolis Center
Tue 03:34:22 PM 41.1678 -96.3242 282° West 149 171 10,500  Level Minneapolis Center
Tue 03:35:23 PM 41.1656 -96.3786 267° West 148 170 10,500  Level Minneapolis Center
Tue 03:36:25 PM 41.1633 -96.4336 267° West 149 171 10,500  Level Minneapolis Center
Tue 03:37:27 PM 41.1606 -96.4858 266° West 144 166 10,500  Level Minneapolis Center
Tue 03:38:29 PM 41.1575 -96.5383 266° West 143 165 10,500  Level Minneapolis Center
Tue 03:39:30 PM 41.1561 -96.5917 268° West 144 166 10,500 242 Level Minneapolis Center
Tue 03:40:33 PM 41.1531 -96.6556 266° West 145 167 11,000 435 Climbing Minneapolis Center
Tue 03:41:34 PM 41.1528 -96.6942 269° West 116 133 11,400 293 Climbing Minneapolis Center
Tue 03:42:36 PM 41.1514 -96.7333 267° West 109 125 11,600 242 Climbing Minneapolis Center
Tue 03:43:38 PM 41.1453 -96.7742 259° West 110 127 11,900 290 Climbing Minneapolis Center
Tue 03:44:40 PM 41.1428 -96.8153 265° West 112 129 12,200 242 Climbing Minneapolis Center
Tue 03:45:42 PM 41.1433 -96.8572 271° West 114 131 12,400 146 Climbing Minneapolis Center
Tue 03:46:43 PM 41.1419 -96.9089 268° West 116 133 12,500 98 Climbing Minneapolis Center
Tue 03:47:45 PM 41.1378 -96.9561 263° West 125 144 12,600  Climbing Minneapolis Center
Tue 03:48:47 PM 41.1336 -97.0050 264° West 131 151 12,500 -44 Descending Minneapolis Center
Tue 03:50:01 PM 41.1339 -97.0561 270° West 136 157 12,500  Level Minneapolis Center
Tue 03:51:03 PM 41.1317 -97.1169 267° West 137 158 12,500 48 Level Minneapolis Center
Tue 03:52:05 PM 41.1297 -97.1667 267° West 137 158 12,600  Climbing Minneapolis Center
Tue 03:53:07 PM 41.1250 -97.2178 263° West 138 159 12,500 -48 Descending Minneapolis Center
Tue 03:54:09 PM 41.1222 -97.2800 267° West 140 161 12,500  Level Minneapolis Center
Tue 03:55:11 PM 41.1228 -97.3308 271° West 139 160 12,500  Level Minneapolis Center
Tue 03:56:12 PM 41.1197 -97.3814 265° West 138 159 12,500 -537 Level Minneapolis Center
Tue 03:57:14 PM 41.1133 -97.4400 262° West 150 173 11,400 -919 Descending Minneapolis Center
Tue 03:58:16 PM 41.1119 -97.5058 268° West 174 200 10,600 -677 Descending Minneapolis Center
Tue 03:59:18 PM 41.1069 -97.5653 264° West 166 191 10,000 -290 Descending Minneapolis Center
Tue 04:00:20 PM 41.1083 -97.6183 272° West 149 171 10,000  Level Minneapolis Center
Tue 04:01:21 PM 41.1078 -97.6708 269° West 143 165 10,000  Level Minneapolis Center
Tue 04:02:23 PM 41.0986 -97.7186 256° West 136 157 10,000  Level Minneapolis Center
Tue 04:03:25 PM 41.0981 -97.7794 269° West 137 158 10,000  Level Minneapolis Center
Tue 04:04:27 PM 41.0928 -97.8289 262° West 135 155 10,000  Level Minneapolis Center
Tue 04:05:29 PM 41.0894 -97.8797 265° West 138 159 10,000  Level Minneapolis Center
Tue 04:06:31 PM 41.0864 -97.9314 266° West 139 160 10,000  Level Minneapolis Center
Tue 04:07:33 PM 41.0828 -97.9814 265° West 138 159 10,000  Level Minneapolis Center
Tue 04:08:34 PM 41.0814 -98.0208 267° West 136 157 10,000  Level Minneapolis Center
Tue 04:09:36 PM 41.0764 -98.0825 264° West 139 160 10,000  Level Minneapolis Center
Tue 04:10:38 PM 41.0731 -98.1447 266° West 141 162 10,000  Level Minneapolis Center
Tue 04:11:40 PM 41.0700 -98.1967 266° West 141 162 10,000  Level Minneapolis Center
Tue 04:12:42 PM 41.0669 -98.2472 265° West 138 159 10,000  Level Minneapolis Center
Tue 04:13:44 PM 41.0631 -98.2997 264° West 141 162 10,000  Level Minneapolis Center
Tue 04:14:46 PM 41.0594 -98.3508 265° West 141 162 10,000  Level Minneapolis Center
Tue 04:15:48 PM 41.0556 -98.4033 264° West 142 163 10,000  Level Minneapolis Center
Tue 04:16:50 PM 41.0539 -98.4556 268° West 142 163 10,000 -48 Level Minneapolis Center
Tue 04:17:52 PM 41.0503 -98.5197 266° West 145 167 9,900  Descending Minneapolis Center
Tue 04:18:54 PM 41.0469 -98.5736 265° West 146 168 10,000  Climbing Minneapolis Center
Tue 04:19:56 PM 41.0442 -98.6269 266° West 146 168 9,900 -48 Descending Minneapolis Center
Tue 04:20:58 PM 41.0403 -98.6789 264° West 144 166 9,900 48 Level Minneapolis Center
Tue 04:22:00 PM 41.0258 -98.7136 241° Southwest 138 159 10,000 48 Climbing Minneapolis Center
Tue 04:23:02 PM 41.0092 -98.7694 248° West 135 155 10,000  Level Minneapolis Center
Tue 04:24:04 PM 40.9944 -98.8161 247° West 135 155 10,000  Level Minneapolis Center
Tue 04:25:06 PM 40.9842 -98.8661 255° West 138 159 10,000  Level Minneapolis Center
Tue 04:26:09 PM 40.9722 -98.9236 255° West 137 158 10,000  Level Minneapolis Center
Tue 04:27:11 PM 40.9592 -98.9728 251° West 138 159 10,000  Level Minneapolis Center
Tue 04:28:13 PM 40.9453 -99.0219 250° West 140 161 10,000  Level Minneapolis Center
Tue 04:29:15 PM 40.9317 -99.0717 250° West 142 163 10,000  Level Minneapolis Center
Tue 04:30:17 PM 40.9181 -99.1211 250° West 143 165 10,000 -76 Level Minneapolis Center
Tue 04:30:34 PM 40.9117 -99.1394 245° Southwest 142 163 9,900 -76 Descending Denver Center
Tue 04:31:36 PM 40.8950 -99.1847 244° Southwest 138 159 9,900  Level Denver Center
Tue 04:32:38 PM 40.8794 -99.2319 246° West 139 160 9,900  Level Denver Center
Tue 04:33:39 PM 40.8642 -99.2833 249° West 147 169 9,900  Level Denver Center
Tue 04:34:41 PM 40.8467 -99.3319 245° Southwest 147 169 9,900  Level Denver Center
Tue 04:35:43 PM 40.8361 -99.3858 256° West 150 173 9,900  Level Denver Center
Tue 04:36:44 PM 40.8319 -99.4414 264° West 152 175 9,900  Level Denver Center
Tue 04:37:46 PM 40.8264 -99.4981 263° West 154 177 9,900  Level Denver Center
Tue 04:38:47 PM 40.8181 -99.5644 261° West 153 176 9,900  Level Denver Center
Tue 04:39:49 PM 40.8114 -99.6194 261° West 152 175 9,900  Level Denver Center
Tue 04:40:51 PM 40.8058 -99.6719 262° West 147 169 9,900  Level Denver Center
Tue 04:41:52 PM 40.8036 -99.7267 267° West 148 170 9,900 49 Level Denver Center
Tue 04:42:54 PM 40.8019 -99.7825 268° West 151 174 10,000 48 Climbing Denver Center
Tue 04:43:56 PM 40.8000 -99.8364 267° West 150 173 10,000  Level Denver Center
Tue 04:44:57 PM 40.7972 -99.8972 267° West 150 173 10,000  Level Denver Center
Tue 04:45:59 PM 40.7953 -99.9492 267° West 149 171 10,000  Level Denver Center
Tue 04:47:01 PM 40.7922 -100.0094 266° West 148 170 10,000  Level Denver Center
Tue 04:48:03 PM 40.7897 -100.0597 266° West 145 167 10,000  Level Denver Center
Tue 04:49:04 PM 40.7858 -100.1181 265° West 143 165 10,000  Level Denver Center
Tue 04:50:06 PM 40.7831 -100.1681 266° West 142 163 10,000  Level Denver Center
Tue 04:51:07 PM 40.7803 -100.2183 266° West 143 165 10,000  Level Denver Center
Tue 04:52:09 PM 40.7775 -100.2789 267° West 147 169 10,000  Level Denver Center
Tue 04:53:11 PM 40.7764 -100.3303 268° West 147 169 10,000  Level Denver Center
Tue 04:54:12 PM 40.7733 -100.3897 266° West 146 168 10,000  Level Denver Center
Tue 04:55:14 PM 40.7700 -100.4403 265° West 145 167 10,000 -48 Level Denver Center
Tue 04:56:16 PM 40.7675 -100.4911 266° West 144 166 9,900  Descending Denver Center
Tue 04:57:17 PM 40.7642 -100.5500 266° West 145 167 10,000 49 Climbing Denver Center
Tue 04:58:19 PM 40.7614 -100.6014 266° West 146 168 10,000  Level Denver Center
Tue 04:59:21 PM 40.7600 -100.6608 268° West 145 167 10,000  Level Denver Center
Tue 05:00:23 PM 40.7583 -100.7128 268° West 146 168 10,000  Level Denver Center
Tue 05:01:25 PM 40.7572 -100.7658 268° West 148 170 10,000  Level Denver Center
Tue 05:02:26 PM 40.7569 -100.8269 270° West 148 170 10,000  Level Denver Center
Tue 05:03:28 PM 40.7533 -100.8792 265° West 148 170 10,000  Level Denver Center
Tue 05:04:30 PM 40.7486 -100.9403 264° West 150 173 10,000 48 Level Denver Center
Tue 05:05:32 PM 40.7444 -100.9925 264° West 149 171 10,100  Climbing Denver Center
Tue 05:06:33 PM 40.7403 -101.0522 265° West 147 169 10,000 -49 Descending Denver Center
Tue 05:07:35 PM 40.7369 -101.1044 265° West 149 171 10,000 48 Level Denver Center
Tue 05:08:37 PM 40.7389 -101.1569 273° West 150 173 10,100  Climbing Denver Center
Tue 05:09:39 PM 40.7317 -101.2169 261° West 149 171 10,000 -49 Descending Denver Center
Tue 05:10:40 PM 40.7303 -101.2683 268° West 147 169 10,000  Level Denver Center
Tue 05:11:42 PM 40.7253 -101.3308 264° West 150 173 10,000  Level Denver Center
Tue 05:12:44 PM 40.7219 -101.3839 265° West 152 175 10,000  Level Denver Center
Tue 05:13:58 PM 40.7172 -101.4533 265° West 151 174 10,000  Level Denver Center
Tue 05:15:00 PM 40.7139 -101.5067 265° West 150 173 10,000  Level Denver Center
Tue 05:16:02 PM 40.7111 -101.5686 267° West 151 174 10,000  Level Denver Center
Tue 05:17:04 PM 40.7072 -101.6214 264° West 152 175 10,000 48 Level Denver Center
Tue 05:18:06 PM 40.7036 -101.6817 266° West 149 171 10,100 48 Climbing Denver Center
Tue 05:19:08 PM 40.7006 -101.7356 266° West 150 173 10,100  Level Denver Center
Tue 05:20:10 PM 40.6964 -101.7969 265° West 151 174 10,100  Level Denver Center
Tue 05:21:11 PM 40.6933 -101.8503 266° West 152 175 10,100 49 Level Denver Center
Tue 05:22:13 PM 40.6875 -101.9028 262° West 152 175 10,200 -48 Climbing Denver Center
Tue 05:23:15 PM 40.6858 -101.9664 268° West 154 177 10,000 -97 Descending Denver Center
Tue 05:24:17 PM 40.6822 -102.0225 265° West 157 181 10,000  Level Denver Center
Tue 05:25:19 PM 40.6800 -102.0850 267° West 156 180 10,000 48 Level Denver Center
Tue 05:26:21 PM 40.6783 -102.1369 268° West 151 174 10,100  Climbing Denver Center
Tue 05:27:23 PM 40.6747 -102.1997 266° West 152 175 10,000 -48 Descending Denver Center
Tue 05:28:25 PM 40.6722 -102.2558 267° West 156 180 10,000  Level Denver Center
Tue 05:29:27 PM 40.6656 -102.3203 262° West 159 183 10,000  Level Denver Center
Tue 05:30:29 PM 40.6606 -102.3744 263° West 157 181 10,000  Level Denver Center
Tue 05:31:31 PM 40.6514 -102.4386 259° West 158 182 10,000 49 Level Denver Center
Tue 05:32:32 PM 40.6356 -102.4897 248° West 157 181 10,100 49 Climbing Denver Center
Tue 05:33:34 PM 40.6250 -102.5439 256° West 159 183 10,100 48 Level Denver Center
Tue 05:34:36 PM 40.6136 -102.6081 257° West 160 184 10,200 48 Climbing Denver Center
Tue 05:35:38 PM 40.6019 -102.6636 255° West 162 186 10,200 -48 Level Denver Center
Tue 05:36:40 PM 40.5847 -102.7258 250° West 162 186 10,100 -48 Descending Denver Center
Tue 05:37:43 PM 40.5703 -102.7789 250° West 162 186 10,100  Level Denver Center
Tue 05:38:45 PM 40.5594 -102.8408 257° West 158 182 10,100  Level Denver Center
Tue 05:39:47 PM 40.5439 -102.8953 249° West 157 181 10,100  Level Denver Center
Tue 05:40:49 PM 40.5294 -102.9497 251° West 157 181 10,100  Level Denver Center
Tue 05:41:51 PM 40.5158 -103.0058 252° West 160 184 10,100  Level Denver Center
Tue 05:42:53 PM 40.5042 -103.0617 255° West 157 181 10,100 -48 Level Denver Center
Tue 05:43:55 PM 40.4911 -103.1172 253° West 157 181 10,000  Descending Denver Center
Tue 05:44:57 PM 40.4761 -103.1817 253° West 157 181 10,100 49 Climbing Denver Center
Tue 05:45:58 PM 40.4642 -103.2381 254° West 158 182 10,100  Level Denver Center
Tue 05:47:00 PM 40.4519 -103.2939 254° West 158 182 10,100  Level Denver Center
Tue 05:48:02 PM 40.4403 -103.3389 251° West 157 181 10,100  Level Denver Center
Tue 05:49:04 PM 40.4261 -103.4044 254° West 158 182 10,100 -48 Level Denver Center
Tue 05:50:06 PM 40.4131 -103.4608 253° West 159 183 10,000 -48 Descending Denver Center
Tue 05:51:08 PM 40.4033 -103.5175 257° West 158 182 10,000 -48 Level Denver Center
Tue 05:52:10 PM 40.4114 -103.5756 280° West 156 180 9,900 -145 Descending Denver Center
Tue 05:53:12 PM 40.4258 -103.6433 286° West 160 184 9,700 48 Descending Denver Center
Tue 05:54:14 PM 40.4333 -103.6997 280° West 160 184 10,000 145 Climbing Denver Center
Tue 05:55:16 PM 40.4361 -103.7556 274° West 153 176 10,000  Level Denver Center
Tue 05:56:18 PM 40.4417 -103.8100 278° West 151 174 10,000  Level Denver Center
Tue 05:57:20 PM 40.4483 -103.8678 279° West 149 171 10,000  Level Denver Center
Tue 05:58:22 PM 40.4442 -103.9219 264° West 151 174 10,000  Level Denver Center
Tue 05:59:24 PM 40.4461 -103.9786 273° West 145 167 10,000 -194 Level Denver Center
Tue 06:00:26 PM 40.4447 -104.0364 268° West 156 180 9,600 -290 Descending Denver Center
Tue 06:01:28 PM 40.4469 -104.0992 273° West 169 194 9,400 -581 Descending Denver Center
Tue 06:02:30 PM 40.4419 -104.1675 265° West 178 205 8,400 -677 Descending Denver Center
Tue 06:03:32 PM 40.4442 -104.2336 273° West 181 208 8,000 -194 Descending Denver Center
Tue 06:04:34 PM 40.4425 -104.2933 268° West 159 183 8,000  Level Denver Center
Tue 06:05:36 PM 40.4461 -104.3475 275° West 152 175 8,000  Level Denver Center
Tue 06:06:38 PM 40.4489 -104.4081 273° West 155 178 8,000 -48 Level Denver Center
Tue 06:07:40 PM 40.4503 -104.4647 272° West 156 180 7,900 -48 Descending Denver Center
Tue 06:08:42 PM 40.4483 -104.5192 267° West 152 175 7,900 48 Level Denver Center
Tue 06:09:44 PM 40.4492 -104.5803 271° West 155 178 8,000 48 Climbing Denver Center
Tue 06:10:46 PM 40.4486 -104.6389 269° West 159 183 8,000 -48 Level Denver Center
Tue 06:11:48 PM 40.4472 -104.6975 268° West 159 183 7,900 -97 Descending Denver Center

Login

Don't have an account? Register now (free) for customized features, flight alerts, and more!